Year,Month,Day,Hour,Minute,Value (Times are PST for temperature in C)
2011,10,29,00,00,6.60
2011,10,29,00,01,6.60
2011,10,29,00,02,6.60
2011,10,29,00,03,6.60
2011,10,29,00,04,6.60
2011,10,29,00,05,6.60
2011,10,29,00,06,6.60
2011,10,29,00,07,6.50
2011,10,29,00,08,6.50
2011,10,29,00,09,6.50
2011,10,29,00,10,6.40
2011,10,29,00,11,6.40
2011,10,29,00,12,6.40
2011,10,29,00,13,6.40
2011,10,29,00,14,6.40
2011,10,29,00,15,6.40
2011,10,29,00,16,6.40
2011,10,29,00,17,6.30
2011,10,29,00,18,6.30
2011,10,29,00,19,6.30
2011,10,29,00,20,6.30
2011,10,29,00,21,6.30
2011,10,29,00,22,6.20
2011,10,29,00,23,6.20
2011,10,29,00,24,6.20
2011,10,29,00,25,6.20
2011,10,29,00,26,6.10
2011,10,29,00,27,6.10
2011,10,29,00,28,6.10
2011,10,29,00,29,6.00
2011,10,29,00,30,6.00
2011,10,29,00,31,6.10
2011,10,29,00,32,6.10
2011,10,29,00,33,6.10
2011,10,29,00,34,6.20
2011,10,29,00,35,6.10
2011,10,29,00,36,6.10
2011,10,29,00,37,6.10
2011,10,29,00,38,6.00
2011,10,29,00,39,6.10
2011,10,29,00,40,6.10
2011,10,29,00,41,6.30
2011,10,29,00,42,6.30
2011,10,29,00,43,6.30
2011,10,29,00,44,6.40
2011,10,29,00,45,6.40
2011,10,29,00,46,6.40
2011,10,29,00,47,6.40
2011,10,29,00,48,6.40
2011,10,29,00,49,6.30
2011,10,29,00,50,6.20
2011,10,29,00,51,6.20
2011,10,29,00,52,6.20
2011,10,29,00,53,6.20
2011,10,29,00,54,6.20
2011,10,29,00,55,6.20
2011,10,29,00,56,6.20
2011,10,29,00,57,6.20
2011,10,29,00,58,6.20
2011,10,29,00,59,6.20
2011,10,29,01,00,6.20
2011,10,29,01,01,6.30
2011,10,29,01,02,6.30
2011,10,29,01,03,6.40
2011,10,29,01,04,6.40
2011,10,29,01,05,6.60
2011,10,29,01,06,6.80
2011,10,29,01,07,6.80
2011,10,29,01,08,6.80
2011,10,29,01,09,6.90
2011,10,29,01,10,7.10
2011,10,29,01,11,7.20
2011,10,29,01,12,7.30
2011,10,29,01,13,7.50
2011,10,29,01,14,7.60
2011,10,29,01,15,7.70
2011,10,29,01,16,7.80
2011,10,29,01,17,7.80
2011,10,29,01,18,7.90
2011,10,29,01,19,7.90
2011,10,29,01,20,8.00
2011,10,29,01,21,8.00
2011,10,29,01,22,8.00
2011,10,29,01,23,8.10
2011,10,29,01,24,8.10
2011,10,29,01,25,8.20
2011,10,29,01,26,8.30
2011,10,29,01,27,8.30
2011,10,29,01,28,8.30
2011,10,29,01,29,8.30
2011,10,29,01,30,8.30
2011,10,29,01,31,8.30
2011,10,29,01,32,8.30
2011,10,29,01,33,8.20
2011,10,29,01,34,8.20
2011,10,29,01,35,8.20
2011,10,29,01,36,8.20
2011,10,29,01,37,8.10
2011,10,29,01,38,8.10
2011,10,29,01,39,8.00
2011,10,29,01,40,8.00
2011,10,29,01,41,7.90
2011,10,29,01,42,7.80
2011,10,29,01,43,7.80
2011,10,29,01,44,7.70
2011,10,29,01,45,7.70
2011,10,29,01,46,7.70
2011,10,29,01,47,7.60
2011,10,29,01,48,7.50
2011,10,29,01,49,7.40
2011,10,29,01,50,7.40
2011,10,29,01,51,7.30
2011,10,29,01,52,7.30
2011,10,29,01,53,7.40
2011,10,29,01,54,7.40
2011,10,29,01,55,7.40
2011,10,29,01,56,7.50
2011,10,29,01,57,7.60
2011,10,29,01,58,7.60
2011,10,29,01,59,7.60
2011,10,29,02,00,7.60
2011,10,29,02,01,7.50
2011,10,29,02,02,7.50
2011,10,29,02,03,7.40
2011,10,29,02,04,7.40
2011,10,29,02,05,7.40
2011,10,29,02,06,7.40
2011,10,29,02,07,7.40
2011,10,29,02,08,7.40
2011,10,29,02,09,7.40
2011,10,29,02,10,7.40
2011,10,29,02,11,7.30
2011,10,29,02,12,7.30
2011,10,29,02,13,7.30
2011,10,29,02,14,7.30
2011,10,29,02,15,7.20
2011,10,29,02,16,7.10
2011,10,29,02,17,6.90
2011,10,29,02,18,6.80
2011,10,29,02,19,6.70
2011,10,29,02,20,6.60
2011,10,29,02,21,6.50
2011,10,29,02,22,6.40
2011,10,29,02,23,6.40
2011,10,29,02,24,6.40
2011,10,29,02,25,6.40
2011,10,29,02,26,6.40
2011,10,29,02,27,6.40
2011,10,29,02,28,6.40
2011,10,29,02,29,6.50
2011,10,29,02,30,6.50
2011,10,29,02,31,6.50
2011,10,29,02,32,6.60
2011,10,29,02,33,6.60
2011,10,29,02,34,6.50
2011,10,29,02,35,6.50
2011,10,29,02,36,6.50
2011,10,29,02,37,6.50
2011,10,29,02,38,6.50
2011,10,29,02,39,6.50
2011,10,29,02,40,6.40
2011,10,29,02,41,6.40
2011,10,29,02,42,6.40
2011,10,29,02,43,6.30
2011,10,29,02,44,6.30
2011,10,29,02,45,6.30
2011,10,29,02,46,6.30
2011,10,29,02,47,6.20
2011,10,29,02,48,6.20
2011,10,29,02,49,6.20
2011,10,29,02,50,6.10
2011,10,29,02,51,6.10
2011,10,29,02,52,6.00
2011,10,29,02,53,5.90
2011,10,29,02,54,5.90
2011,10,29,02,55,5.80
2011,10,29,02,56,5.80
2011,10,29,02,57,5.70
2011,10,29,02,58,5.70
2011,10,29,02,59,5.70
2011,10,29,03,00,5.70
2011,10,29,03,01,5.70
2011,10,29,03,02,5.60
2011,10,29,03,06,5.50
2011,10,29,03,07,5.40
2011,10,29,03,08,5.50
2011,10,29,03,09,5.50
2011,10,29,03,10,5.60
2011,10,29,03,11,5.60
2011,10,29,03,12,5.60
2011,10,29,03,13,5.60
2011,10,29,03,14,5.70
2011,10,29,03,15,5.70
2011,10,29,03,16,5.70
2011,10,29,03,17,5.70
2011,10,29,03,18,5.70
2011,10,29,03,19,5.70
2011,10,29,03,20,5.60
2011,10,29,03,21,5.60
2011,10,29,03,22,5.50
2011,10,29,03,23,5.40
2011,10,29,03,24,5.40
2011,10,29,03,25,5.40
2011,10,29,03,26,5.40
2011,10,29,03,27,5.40
2011,10,29,03,28,5.40
2011,10,29,03,29,5.40
2011,10,29,03,30,5.40
2011,10,29,03,31,5.40
2011,10,29,03,32,5.40
2011,10,29,03,33,5.40
2011,10,29,03,34,5.50
2011,10,29,03,35,5.50
2011,10,29,03,36,5.50
2011,10,29,03,37,5.50
2011,10,29,03,38,5.40
2011,10,29,03,39,5.40
2011,10,29,03,40,5.30
2011,10,29,03,41,5.30
2011,10,29,03,42,5.20
2011,10,29,03,43,5.10
2011,10,29,03,44,5.10
2011,10,29,03,45,5.00
2011,10,29,03,46,5.00
2011,10,29,03,47,5.00
2011,10,29,03,48,4.90
2011,10,29,03,49,4.90
2011,10,29,03,50,4.90
2011,10,29,03,51,4.90
2011,10,29,03,52,4.90
2011,10,29,03,53,5.00
2011,10,29,03,54,5.00
2011,10,29,03,55,5.00
2011,10,29,03,56,5.00
2011,10,29,03,57,5.00
2011,10,29,03,58,5.00
2011,10,29,03,59,5.00
2011,10,29,04,00,5.00
2011,10,29,04,01,4.90
2011,10,29,04,02,4.90
2011,10,29,04,03,4.90
2011,10,29,04,04,4.90
2011,10,29,04,05,4.80
2011,10,29,04,06,4.80
2011,10,29,04,07,4.80
2011,10,29,04,08,4.70
2011,10,29,04,09,4.70
2011,10,29,04,10,4.70
2011,10,29,04,11,4.70
2011,10,29,04,12,4.70
2011,10,29,04,13,4.70
2011,10,29,04,14,4.70
2011,10,29,04,15,4.70
2011,10,29,04,16,4.70
2011,10,29,04,17,4.70
2011,10,29,04,18,4.70
2011,10,29,04,19,4.60
2011,10,29,04,20,4.60
2011,10,29,04,21,4.50
2011,10,29,04,22,4.50
2011,10,29,04,23,4.50
2011,10,29,04,24,4.50
2011,10,29,04,25,4.50
2011,10,29,04,26,4.50
2011,10,29,04,27,4.60
2011,10,29,04,28,4.60
2011,10,29,04,29,4.60
2011,10,29,04,30,4.60
2011,10,29,04,31,4.60
2011,10,29,04,32,4.60
2011,10,29,04,33,4.60
2011,10,29,04,34,4.60
2011,10,29,04,35,4.70
2011,10,29,04,36,4.70
2011,10,29,04,37,4.70
2011,10,29,04,38,4.70
2011,10,29,04,39,4.80
2011,10,29,04,40,4.80
2011,10,29,04,41,4.80
2011,10,29,04,42,4.80
2011,10,29,04,43,4.80
2011,10,29,04,44,4.90
2011,10,29,04,45,5.00
2011,10,29,04,46,5.10
2011,10,29,04,47,5.20
2011,10,29,04,48,5.30
2011,10,29,04,49,5.30
2011,10,29,04,50,5.20
2011,10,29,04,51,5.20
2011,10,29,04,52,5.20
2011,10,29,04,53,5.20
2011,10,29,04,54,5.20
2011,10,29,04,55,5.20
2011,10,29,04,56,5.20
2011,10,29,04,57,5.10
2011,10,29,04,58,5.10
2011,10,29,04,59,5.10
2011,10,29,05,00,5.10
2011,10,29,05,01,5.10
2011,10,29,05,02,5.10
2011,10,29,05,03,5.10
2011,10,29,05,04,5.10
2011,10,29,05,05,5.10
2011,10,29,05,06,5.00
2011,10,29,05,07,5.00
2011,10,29,05,08,4.90
2011,10,29,05,09,4.90
2011,10,29,05,10,4.90
2011,10,29,05,11,4.90
2011,10,29,05,12,4.90
2011,10,29,05,13,4.90
2011,10,29,05,14,4.90
2011,10,29,05,15,4.90
2011,10,29,05,16,4.90
2011,10,29,05,17,4.90
2011,10,29,05,18,4.80
2011,10,29,05,19,4.80
2011,10,29,05,20,4.80
2011,10,29,05,21,4.80
2011,10,29,05,22,4.90
2011,10,29,05,23,4.90
2011,10,29,05,24,4.90
2011,10,29,05,25,4.90
2011,10,29,05,26,4.90
2011,10,29,05,27,4.90
2011,10,29,05,28,4.90
2011,10,29,05,29,4.90
2011,10,29,05,30,4.90
2011,10,29,05,31,4.90
2011,10,29,05,32,4.90
2011,10,29,05,33,4.90
2011,10,29,05,34,4.90
2011,10,29,05,35,4.90
2011,10,29,05,36,4.90
2011,10,29,05,37,5.00
2011,10,29,05,38,5.00
2011,10,29,05,39,5.00
2011,10,29,05,40,5.00
2011,10,29,05,41,5.00
2011,10,29,05,42,5.00
2011,10,29,05,43,5.00
2011,10,29,05,44,5.00
2011,10,29,05,45,5.00
2011,10,29,05,46,5.00
2011,10,29,05,47,5.00
2011,10,29,05,48,5.00
2011,10,29,05,49,5.00
2011,10,29,05,50,5.00
2011,10,29,05,51,5.00
2011,10,29,05,52,5.00
2011,10,29,05,53,5.10
2011,10,29,05,54,5.10
2011,10,29,05,55,5.10
2011,10,29,05,56,5.00
2011,10,29,05,57,5.00
2011,10,29,05,58,5.00
2011,10,29,05,59,5.00
2011,10,29,06,00,5.00
2011,10,29,06,01,5.00
2011,10,29,06,02,5.00
2011,10,29,06,03,5.00
2011,10,29,06,04,5.00
2011,10,29,06,05,5.00
2011,10,29,06,06,5.00
2011,10,29,06,07,5.00
2011,10,29,06,08,5.00
2011,10,29,06,09,5.00
2011,10,29,06,10,5.00
2011,10,29,06,11,4.90
2011,10,29,06,12,5.00
2011,10,29,06,13,5.00
2011,10,29,06,14,5.00
2011,10,29,06,15,5.00
2011,10,29,06,16,5.00
2011,10,29,06,17,5.00
2011,10,29,06,18,5.00
2011,10,29,06,19,5.00
2011,10,29,06,20,5.10
2011,10,29,06,21,5.10
2011,10,29,06,22,5.10
2011,10,29,06,23,5.10
2011,10,29,06,24,5.10
2011,10,29,06,25,5.10
2011,10,29,06,26,5.10
2011,10,29,06,27,5.10
2011,10,29,06,28,5.10
2011,10,29,06,29,5.10
2011,10,29,06,30,5.10
2011,10,29,06,31,5.10
2011,10,29,06,32,5.00
2011,10,29,06,33,5.10
2011,10,29,06,34,5.00
2011,10,29,06,35,5.00
2011,10,29,06,36,5.00
2011,10,29,06,37,5.00
2011,10,29,06,38,5.00
2011,10,29,06,39,5.00
2011,10,29,06,40,5.00
2011,10,29,06,41,5.00
2011,10,29,06,42,5.00
2011,10,29,06,43,5.00
2011,10,29,06,44,5.00
2011,10,29,06,45,5.00
2011,10,29,06,46,5.00
2011,10,29,06,47,5.00
2011,10,29,06,48,5.00
2011,10,29,06,49,5.00
2011,10,29,06,50,5.00
2011,10,29,06,51,5.00
2011,10,29,06,52,5.00
2011,10,29,06,53,4.90
2011,10,29,06,54,4.90
2011,10,29,06,55,4.90
2011,10,29,06,56,4.90
2011,10,29,06,57,4.80
2011,10,29,06,58,4.80
2011,10,29,06,59,4.90
2011,10,29,07,00,4.90
2011,10,29,07,01,4.90
2011,10,29,07,02,4.90
2011,10,29,07,03,4.90
2011,10,29,07,04,4.90
2011,10,29,07,05,4.90
2011,10,29,07,06,4.90
2011,10,29,07,07,4.90
2011,10,29,07,08,4.90
2011,10,29,07,09,4.80
2011,10,29,07,10,4.80
2011,10,29,07,11,4.80
2011,10,29,07,12,4.80
2011,10,29,07,13,4.80
2011,10,29,07,14,4.80
2011,10,29,07,15,4.80
2011,10,29,07,16,4.80
2011,10,29,07,17,4.80
2011,10,29,07,18,4.80
2011,10,29,07,19,4.80
2011,10,29,07,20,4.80
2011,10,29,07,21,4.80
2011,10,29,07,22,4.80
2011,10,29,07,23,4.80
2011,10,29,07,24,4.80
2011,10,29,07,25,4.70
2011,10,29,07,26,4.70
2011,10,29,07,27,4.70
2011,10,29,07,28,4.70
2011,10,29,07,29,4.80
2011,10,29,07,30,4.80
2011,10,29,07,31,4.80
2011,10,29,07,32,4.80
2011,10,29,07,33,4.80
2011,10,29,07,34,4.80
2011,10,29,07,35,4.80
2011,10,29,07,36,4.80
2011,10,29,07,37,4.80
2011,10,29,07,38,4.80
2011,10,29,07,39,4.80
2011,10,29,07,40,4.80
2011,10,29,07,41,4.80
2011,10,29,07,42,4.80
2011,10,29,07,43,4.70
2011,10,29,07,44,4.70
2011,10,29,07,45,4.70
2011,10,29,07,46,4.60
2011,10,29,07,47,4.60
2011,10,29,07,48,4.60
2011,10,29,07,49,4.60
2011,10,29,07,50,4.60
2011,10,29,07,51,4.60
2011,10,29,07,52,4.60
2011,10,29,07,53,4.60
2011,10,29,07,54,4.60
2011,10,29,07,55,4.60
2011,10,29,07,56,4.60
2011,10,29,07,57,4.50
2011,10,29,07,58,4.50
2011,10,29,07,59,4.50
2011,10,29,08,00,4.50
2011,10,29,08,01,4.50
2011,10,29,08,02,4.40
2011,10,29,08,03,4.40
2011,10,29,08,04,4.40
2011,10,29,08,05,4.40
2011,10,29,08,06,4.40
2011,10,29,08,07,4.40
2011,10,29,08,08,4.40
2011,10,29,08,09,4.30
2011,10,29,08,10,4.30
2011,10,29,08,11,4.30
2011,10,29,08,12,4.30
2011,10,29,08,13,4.30
2011,10,29,08,14,4.30
2011,10,29,08,15,4.20
2011,10,29,08,16,4.20
2011,10,29,08,17,4.20
2011,10,29,08,18,4.10
2011,10,29,08,19,4.10
2011,10,29,08,20,4.10
2011,10,29,08,21,4.10
2011,10,29,08,22,4.10
2011,10,29,08,23,4.10
2011,10,29,08,24,4.10
2011,10,29,08,25,4.10
2011,10,29,08,26,4.10
2011,10,29,08,27,4.00
2011,10,29,08,28,4.00
2011,10,29,08,29,4.00
2011,10,29,08,30,4.00
2011,10,29,08,31,4.00
2011,10,29,08,32,4.00
2011,10,29,08,33,4.00
2011,10,29,08,34,4.00
2011,10,29,08,35,4.10
2011,10,29,08,36,4.10
2011,10,29,08,37,4.10
2011,10,29,08,38,4.10
2011,10,29,08,39,4.20
2011,10,29,08,40,4.20
2011,10,29,08,41,4.20
2011,10,29,08,42,4.20
2011,10,29,08,43,4.30
2011,10,29,08,44,4.30
2011,10,29,08,45,4.30
2011,10,29,08,46,4.30
2011,10,29,08,47,4.30
2011,10,29,08,48,4.30
2011,10,29,08,49,4.20
2011,10,29,08,50,4.20
2011,10,29,08,51,4.20
2011,10,29,08,52,4.20
2011,10,29,08,53,4.30
2011,10,29,08,54,4.30
2011,10,29,08,55,4.30
2011,10,29,08,56,4.40
2011,10,29,08,57,4.40
2011,10,29,08,58,4.50
2011,10,29,08,59,4.60
2011,10,29,09,00,4.60
2011,10,29,09,01,4.70
2011,10,29,09,02,4.80
2011,10,29,09,03,4.90
2011,10,29,09,04,5.00
2011,10,29,09,05,5.10
2011,10,29,09,06,5.10
2011,10,29,09,07,5.10
2011,10,29,09,08,5.10
2011,10,29,09,09,5.10
2011,10,29,09,10,5.10
2011,10,29,09,11,5.10
2011,10,29,09,12,5.20
2011,10,29,09,13,5.20
2011,10,29,09,14,5.30
2011,10,29,09,15,5.30
2011,10,29,09,16,5.30
2011,10,29,09,17,5.30
2011,10,29,09,18,5.30
2011,10,29,09,19,5.30
2011,10,29,09,20,5.30
2011,10,29,09,21,5.30
2011,10,29,09,22,5.30
2011,10,29,09,23,5.30
2011,10,29,09,24,5.30
2011,10,29,09,25,5.30
2011,10,29,09,26,5.30
2011,10,29,09,27,5.30
2011,10,29,09,28,5.30
2011,10,29,09,29,5.30
2011,10,29,09,30,5.30
2011,10,29,09,31,5.40
2011,10,29,09,32,5.40
2011,10,29,09,33,5.40
2011,10,29,09,34,5.40
2011,10,29,09,35,5.40
2011,10,29,09,36,5.50
2011,10,29,09,37,5.50
2011,10,29,09,38,5.50
2011,10,29,09,39,5.60
2011,10,29,09,40,5.60
2011,10,29,09,41,5.60
2011,10,29,09,42,5.70
2011,10,29,09,43,5.70
2011,10,29,09,44,5.70
2011,10,29,09,45,5.70
2011,10,29,09,46,5.70
2011,10,29,09,47,5.80
2011,10,29,09,48,5.80
2011,10,29,09,49,5.80
2011,10,29,09,50,5.90
2011,10,29,09,51,5.90
2011,10,29,09,52,5.90
2011,10,29,09,53,5.90
2011,10,29,09,54,5.90
2011,10,29,09,55,6.00
2011,10,29,09,56,6.10
2011,10,29,09,57,6.10
2011,10,29,09,58,6.20
2011,10,29,09,59,6.20
2011,10,29,10,00,6.30
2011,10,29,10,01,6.40
2011,10,29,10,02,6.50
2011,10,29,10,03,6.60
2011,10,29,10,04,6.70
2011,10,29,10,05,6.70
2011,10,29,10,06,6.80
2011,10,29,10,07,6.80
2011,10,29,10,08,6.80
2011,10,29,10,09,7.00
2011,10,29,10,10,7.10
2011,10,29,10,11,7.20
2011,10,29,10,12,7.30
2011,10,29,10,13,7.40
2011,10,29,10,14,7.40
2011,10,29,10,15,7.50
2011,10,29,10,16,7.60
2011,10,29,10,17,7.60
2011,10,29,10,18,7.70
2011,10,29,10,19,7.70
2011,10,29,10,20,7.70
2011,10,29,10,21,7.70
2011,10,29,10,22,7.70
2011,10,29,10,23,7.80
2011,10,29,10,24,7.80
2011,10,29,10,25,7.80
2011,10,29,10,26,7.80
2011,10,29,10,27,7.80
2011,10,29,10,28,7.70
2011,10,29,10,29,7.70
2011,10,29,10,30,7.70
2011,10,29,10,31,7.70
2011,10,29,10,32,7.70
2011,10,29,10,33,7.70
2011,10,29,10,34,7.70
2011,10,29,10,35,7.70
2011,10,29,10,36,7.70
2011,10,29,10,37,7.70
2011,10,29,10,38,7.70
2011,10,29,10,39,7.80
2011,10,29,10,40,7.80
2011,10,29,10,41,7.80
2011,10,29,10,42,7.80
2011,10,29,10,43,7.80
2011,10,29,10,44,7.90
2011,10,29,10,45,7.90
2011,10,29,10,46,7.90
2011,10,29,10,47,7.90
2011,10,29,10,48,7.90
2011,10,29,10,49,7.90
2011,10,29,10,50,7.90
2011,10,29,10,51,7.90
2011,10,29,10,52,8.00
2011,10,29,10,53,8.00
2011,10,29,10,54,8.00
2011,10,29,10,55,8.00
2011,10,29,10,56,8.00
2011,10,29,10,57,8.10
2011,10,29,10,58,8.10
2011,10,29,10,59,8.10
2011,10,29,11,00,8.10
2011,10,29,11,01,8.10
2011,10,29,11,02,8.10
2011,10,29,11,03,8.10
2011,10,29,11,04,8.10
2011,10,29,11,05,8.20
2011,10,29,11,06,8.20
2011,10,29,11,07,8.20
2011,10,29,11,08,8.20
2011,10,29,11,09,8.30
2011,10,29,11,10,8.30
2011,10,29,11,11,8.30
2011,10,29,11,12,8.30
2011,10,29,11,13,8.30
2011,10,29,11,14,8.30
2011,10,29,11,15,8.40
2011,10,29,11,16,8.40
2011,10,29,11,17,8.40
2011,10,29,11,18,8.40
2011,10,29,11,19,8.40
2011,10,29,11,20,8.50
2011,10,29,11,21,8.50
2011,10,29,11,22,8.60
2011,10,29,11,23,8.60
2011,10,29,11,24,8.60
2011,10,29,11,25,8.60
2011,10,29,11,26,8.70
2011,10,29,11,27,8.70
2011,10,29,11,28,8.70
2011,10,29,11,29,8.70
2011,10,29,11,30,8.80
2011,10,29,11,31,8.80
2011,10,29,11,32,8.80
2011,10,29,11,33,8.80
2011,10,29,11,34,8.80
2011,10,29,11,35,8.90
2011,10,29,11,36,8.90
2011,10,29,11,37,9.00
2011,10,29,11,38,9.00
2011,10,29,11,39,9.10
2011,10,29,11,40,9.10
2011,10,29,11,41,9.10
2011,10,29,11,42,9.10
2011,10,29,11,43,9.10
2011,10,29,11,44,9.20
2011,10,29,11,45,9.20
2011,10,29,11,46,9.20
2011,10,29,11,47,9.20
2011,10,29,11,48,9.20
2011,10,29,11,49,9.20
2011,10,29,11,50,9.20
2011,10,29,11,51,9.20
2011,10,29,11,52,9.20
2011,10,29,11,53,9.30
2011,10,29,11,54,9.30
2011,10,29,11,55,9.30
2011,10,29,11,56,9.40
2011,10,29,11,57,9.40
2011,10,29,11,58,9.50
2011,10,29,11,59,9.50
2011,10,29,12,00,9.50
2011,10,29,12,01,9.50
2011,10,29,12,02,9.60
2011,10,29,12,03,9.60
2011,10,29,12,04,9.60
2011,10,29,12,05,9.60
2011,10,29,12,06,9.70
2011,10,29,12,07,9.70
2011,10,29,12,08,9.80
2011,10,29,12,09,9.90
2011,10,29,12,10,9.90
2011,10,29,12,11,10.00
2011,10,29,12,12,10.10
2011,10,29,12,13,10.20
2011,10,29,12,14,10.30
2011,10,29,12,15,10.30
2011,10,29,12,16,10.40
2011,10,29,12,17,10.50
2011,10,29,12,18,10.60
2011,10,29,12,19,10.70
2011,10,29,12,20,10.70
2011,10,29,12,21,10.80
2011,10,29,12,22,10.90
2011,10,29,12,23,11.00
2011,10,29,12,24,11.20
2011,10,29,12,25,11.20
2011,10,29,12,26,11.20
2011,10,29,12,27,11.20
2011,10,29,12,28,11.20
2011,10,29,12,29,11.20
2011,10,29,12,30,11.20
2011,10,29,12,31,11.30
2011,10,29,12,32,11.30
2011,10,29,12,33,11.20
2011,10,29,12,34,11.20
2011,10,29,12,35,11.20
2011,10,29,12,36,11.20
2011,10,29,12,37,11.20
2011,10,29,12,38,11.20
2011,10,29,12,39,11.20
2011,10,29,12,40,11.20
2011,10,29,12,41,11.20
2011,10,29,12,42,11.20
2011,10,29,12,43,11.20
2011,10,29,12,44,11.20
2011,10,29,12,45,11.30
2011,10,29,12,46,11.30
2011,10,29,12,47,11.40
2011,10,29,12,48,11.50
2011,10,29,12,49,11.50
2011,10,29,12,50,11.60
2011,10,29,12,51,11.70
2011,10,29,12,52,11.80
2011,10,29,12,53,11.80
2011,10,29,12,54,11.90
2011,10,29,12,55,11.90
2011,10,29,12,56,11.90
2011,10,29,12,57,11.90
2011,10,29,12,58,11.90
2011,10,29,12,59,11.90
2011,10,29,13,00,11.90
2011,10,29,13,01,12.00
2011,10,29,13,02,12.00
2011,10,29,13,03,12.10
2011,10,29,13,04,12.10
2011,10,29,13,05,12.10
2011,10,29,13,06,12.20
2011,10,29,13,07,12.20
2011,10,29,13,08,12.20
2011,10,29,13,09,12.20
2011,10,29,13,10,12.30
2011,10,29,13,11,12.30
2011,10,29,13,12,12.30
2011,10,29,13,13,12.40
2011,10,29,13,14,12.40
2011,10,29,13,15,12.40
2011,10,29,13,16,12.40
2011,10,29,13,17,12.40
2011,10,29,13,18,12.40
2011,10,29,13,19,12.30
2011,10,29,13,20,12.30
2011,10,29,13,21,12.40
2011,10,29,13,22,12.40
2011,10,29,13,23,12.40
2011,10,29,13,24,12.40
2011,10,29,13,25,12.40
2011,10,29,13,26,12.40
2011,10,29,13,27,12.40
2011,10,29,13,28,12.50
2011,10,29,13,29,12.50
2011,10,29,13,30,12.60
2011,10,29,13,31,12.60
2011,10,29,13,32,12.70
2011,10,29,13,33,12.70
2011,10,29,13,34,12.70
2011,10,29,13,35,12.70
2011,10,29,13,36,12.70
2011,10,29,13,37,12.80
2011,10,29,13,38,12.80
2011,10,29,13,39,12.80
2011,10,29,13,40,12.80
2011,10,29,13,41,12.80
2011,10,29,13,42,12.80
2011,10,29,13,43,12.80
2011,10,29,13,44,12.80
2011,10,29,13,45,12.70
2011,10,29,13,46,12.70
2011,10,29,13,47,12.70
2011,10,29,13,48,12.80
2011,10,29,13,49,12.80
2011,10,29,13,50,12.90
2011,10,29,13,51,12.90
2011,10,29,13,52,12.90
2011,10,29,13,53,12.90
2011,10,29,13,54,13.00
2011,10,29,13,55,13.00
2011,10,29,13,56,13.00
2011,10,29,13,57,13.10
2011,10,29,13,58,13.00
2011,10,29,13,59,13.00
2011,10,29,14,00,13.00
2011,10,29,14,01,13.00
2011,10,29,14,02,13.00
2011,10,29,14,03,13.10
2011,10,29,14,04,13.10
2011,10,29,14,05,13.10
2011,10,29,14,06,13.10
2011,10,29,14,07,13.10
2011,10,29,14,08,13.10
2011,10,29,14,09,13.10
2011,10,29,14,10,13.10
2011,10,29,14,11,13.10
2011,10,29,14,12,13.10
2011,10,29,14,13,13.00
2011,10,29,14,14,13.00
2011,10,29,14,15,13.00
2011,10,29,14,16,13.00
2011,10,29,14,17,13.00
2011,10,29,14,18,13.00
2011,10,29,14,19,13.10
2011,10,29,14,20,13.00
2011,10,29,14,21,13.00
2011,10,29,14,22,13.00
2011,10,29,14,23,13.00
2011,10,29,14,24,13.00
2011,10,29,14,25,13.00
2011,10,29,14,26,13.00
2011,10,29,14,27,13.10
2011,10,29,14,28,13.10
2011,10,29,14,29,13.20
2011,10,29,14,30,13.30
2011,10,29,14,31,13.30
2011,10,29,14,32,13.30
2011,10,29,14,33,13.30
2011,10,29,14,34,13.30
2011,10,29,14,35,13.30
2011,10,29,14,36,13.40
2011,10,29,14,37,13.40
2011,10,29,14,38,13.40
2011,10,29,14,39,13.40
2011,10,29,14,40,13.40
2011,10,29,14,41,13.40
2011,10,29,14,42,13.40
2011,10,29,14,43,13.40
2011,10,29,14,44,13.50
2011,10,29,14,45,13.50
2011,10,29,14,46,13.50
2011,10,29,14,47,13.40
2011,10,29,14,48,13.40
2011,10,29,14,49,13.30
2011,10,29,14,50,13.30
2011,10,29,14,51,13.30
2011,10,29,14,52,13.30
2011,10,29,14,53,13.30
2011,10,29,14,54,13.30
2011,10,29,14,55,13.40
2011,10,29,14,56,13.40
2011,10,29,14,57,13.40
2011,10,29,14,58,13.40
2011,10,29,14,59,13.40
2011,10,29,15,00,13.40
2011,10,29,15,01,13.30
2011,10,29,15,02,13.30
2011,10,29,15,03,13.30
2011,10,29,15,04,13.30
2011,10,29,15,05,13.20
2011,10,29,15,06,13.20
2011,10,29,15,07,13.20
2011,10,29,15,08,13.20
2011,10,29,15,09,13.20
2011,10,29,15,10,13.20
2011,10,29,15,11,13.20
2011,10,29,15,12,13.20
2011,10,29,15,13,13.20
2011,10,29,15,14,13.20
2011,10,29,15,15,13.20
2011,10,29,15,16,13.20
2011,10,29,15,17,13.20
2011,10,29,15,18,13.30
2011,10,29,15,19,13.30
2011,10,29,15,20,13.30
2011,10,29,15,21,13.30
2011,10,29,15,22,13.30
2011,10,29,15,23,13.30
2011,10,29,15,24,13.30
2011,10,29,15,25,13.30
2011,10,29,15,26,13.30
2011,10,29,15,27,13.30
2011,10,29,15,28,13.30
2011,10,29,15,29,13.30
2011,10,29,15,30,13.30
2011,10,29,15,31,13.40
2011,10,29,15,32,13.40
2011,10,29,15,33,13.40
2011,10,29,15,34,13.40
2011,10,29,15,35,13.40
2011,10,29,15,36,13.40
2011,10,29,15,37,13.40
2011,10,29,15,38,13.50
2011,10,29,15,39,13.50
2011,10,29,15,40,13.60
2011,10,29,15,41,13.60
2011,10,29,15,42,13.70
2011,10,29,15,43,13.70
2011,10,29,15,44,13.70
2011,10,29,15,45,13.70
2011,10,29,15,46,13.70
2011,10,29,15,47,13.70
2011,10,29,15,48,13.60
2011,10,29,15,49,13.60
2011,10,29,15,50,13.60
2011,10,29,15,51,13.60
2011,10,29,15,52,13.60
2011,10,29,15,53,13.50
2011,10,29,15,54,13.50
2011,10,29,15,55,13.50
2011,10,29,15,56,13.50
2011,10,29,15,57,13.50
2011,10,29,15,58,13.50
2011,10,29,15,59,13.50
2011,10,29,16,00,13.50
2011,10,29,16,01,13.40
2011,10,29,16,02,13.40
2011,10,29,16,03,13.40
2011,10,29,16,04,13.40
2011,10,29,16,05,13.40
2011,10,29,16,06,13.30
2011,10,29,16,07,13.30
2011,10,29,16,08,13.30
2011,10,29,16,09,13.30
2011,10,29,16,10,13.20
2011,10,29,16,11,13.20
2011,10,29,16,12,13.10
2011,10,29,16,13,13.10
2011,10,29,16,14,13.10
2011,10,29,16,15,13.10
2011,10,29,16,16,13.10
2011,10,29,16,17,13.10
2011,10,29,16,18,13.10
2011,10,29,16,19,13.00
2011,10,29,16,20,13.00
2011,10,29,16,21,12.90
2011,10,29,16,22,12.90
2011,10,29,16,23,12.90
2011,10,29,16,24,12.80
2011,10,29,16,25,12.80
2011,10,29,16,26,12.80
2011,10,29,16,27,12.80
2011,10,29,16,28,12.70
2011,10,29,16,29,12.70
2011,10,29,16,30,12.70
2011,10,29,16,31,12.70
2011,10,29,16,32,12.70
2011,10,29,16,33,12.60
2011,10,29,16,34,12.60
2011,10,29,16,35,12.60
2011,10,29,16,36,12.60
2011,10,29,16,37,12.60
2011,10,29,16,38,12.50
2011,10,29,16,39,12.50
2011,10,29,16,40,12.50
2011,10,29,16,41,12.50
2011,10,29,16,42,12.40
2011,10,29,16,43,12.40
2011,10,29,16,44,12.40
2011,10,29,16,45,12.40
2011,10,29,16,46,12.40
2011,10,29,16,47,12.40
2011,10,29,16,48,12.30
2011,10,29,16,49,12.30
2011,10,29,16,50,12.30
2011,10,29,16,51,12.30
2011,10,29,16,52,12.30
2011,10,29,16,53,12.30
2011,10,29,16,54,12.30
2011,10,29,16,55,12.30
2011,10,29,16,56,12.20
2011,10,29,16,57,12.20
2011,10,29,16,58,12.20
2011,10,29,16,59,12.20
2011,10,29,17,00,12.20
2011,10,29,17,01,12.20
2011,10,29,17,02,12.20
2011,10,29,17,03,12.20
2011,10,29,17,04,12.20
2011,10,29,17,05,12.20
2011,10,29,17,06,12.20
2011,10,29,17,07,12.20
2011,10,29,17,08,12.20
2011,10,29,17,09,12.20
2011,10,29,17,10,12.20
2011,10,29,17,11,12.20
2011,10,29,17,12,12.20
2011,10,29,17,13,12.20
2011,10,29,17,14,12.20
2011,10,29,17,15,12.20
2011,10,29,17,16,12.20
2011,10,29,17,17,12.10
2011,10,29,17,18,12.10
2011,10,29,17,19,12.10
2011,10,29,17,20,12.10
2011,10,29,17,21,12.10
2011,10,29,17,22,12.10
2011,10,29,17,23,12.10
2011,10,29,17,24,12.10
2011,10,29,17,25,12.10
2011,10,29,17,26,12.10
2011,10,29,17,27,12.10
2011,10,29,17,28,12.00
2011,10,29,17,29,12.00
2011,10,29,17,30,12.00
2011,10,29,17,31,12.00
2011,10,29,17,32,12.00
2011,10,29,17,33,11.90
2011,10,29,17,34,11.90
2011,10,29,17,35,11.90
2011,10,29,17,36,11.90
2011,10,29,17,37,11.90
2011,10,29,17,38,11.90
2011,10,29,17,39,11.90
2011,10,29,17,40,11.90
2011,10,29,17,41,11.80
2011,10,29,17,42,11.80
2011,10,29,17,43,11.80
2011,10,29,17,44,11.80
2011,10,29,17,45,11.80
2011,10,29,17,46,11.80
2011,10,29,17,47,11.80
2011,10,29,17,48,11.70
2011,10,29,17,49,11.70
2011,10,29,17,50,11.70
2011,10,29,17,51,11.70
2011,10,29,17,52,11.70
2011,10,29,17,53,11.70
2011,10,29,17,54,11.60